Wind_Speed
34 34 33 33 33 32 31 31 30 30 29 27 27 27 26 25 25 24 23 23 23 22 22 21 21 21 21 21 20 21 21 21 21 21 20 20 20 20 20 20 21 21 21
36 35 35 35 35 35 35 35 34 33 32 30 30 30 30 29 29 28 27 25 25 24 24 24 22 22 22 21 21 22 22 22 22 22 23 23 23 23 22 22 22 22 22
35 35 35 35 36 36 36 37 36 36 35 34 34 35 34 34 34 32 30 27 27 26 26 25 24 23 22 22 23 23 23 23 23 23 23 24 25 24 23 24 24 24 24
33 33 33 34 34 35 37 38 39 39 38 38 38 38 37 38 37 35 32 30 27 26 25 24 24 23 23 23 23 23 23 23 23 24 25 25 26 26 25 25 26 25 25
31 32 32 33 35 36 36 37 39 40 40 41 41 41 40 41 40 39 34 31 29 27 25 24 24 23 23 22 22 22 22 23 24 24 25 26 26 26 26 26 25 25 26
31 31 32 34 35 36 37 38 39 40 41 42 43 43 42 43 43 40 36 32 29 26 25 23 23 23 21 21 22 22 23 23 23 24 24 25 25 26 25 25 25 25 25
29 30 31 32 33 35 36 36 37 39 41 42 42 42 43 41 40 39 36 32 28 25 23 22 21 20 20 20 21 21 22 22 23 23 23 24 24 24 24 24 24 25 25
26 27 28 30 31 31 33 34 34 35 37 39 41 41 41 40 39 36 33 28 23 21 20 19 18 19 19 20 20 21 21 21 21 22 22 23 23 23 23 23 24 24 25
24 25 26 27 28 28 28 29 31 32 33 35 37 38 36 35 32 30 27 23 19 17 15 15 16 17 19 19 20 20 20 20 21 21 21 22 22 23 23 23 24 24 26
20 20 21 22 22 23 22 23 25 26 26 26 28 29 28 26 25 22 19 16 14 13 13 15 16 17 18 19 20 20 20 20 21 21 22 22 22 22 22 23 24 24 25
13 14 14 15 16 17 17 16 18 19 19 20 21 20 19 18 17 14 11 10 10 12 14 16 17 18 19 19 19 20 20 20 21 21 22 22 22 22 22 22 23 23 23
7 8 8 8 9 10 10 10 10 12 12 12 12 11 11 11 10 9 8 9 12 14 15 17 17 18 19 19 19 20 20 21 21 21 21 21 21 21 21 21 21 22 21
2 1 2 3 4 4 4 4 5 5 5 6 6 6 6 7 7 7 8 10 13 15 16 17 18 19 20 20 20 20 20 21 21 21 21 21 22 21 22 21 21 21 21
6 5 5 4 4 3 2 2 2 2 2 2 2 3 4 5 7 8 10 12 13 15 16 17 18 19 20 20 20 19 20 20 21 21 21 21 22 22 22 21 21 21 21
10 9 10 9 8 6 5 4 3 2 1 2 3 4 6 7 8 10 11 13 14 15 16 17 18 19 20 20 20 20 20 20 21 21 21 20 21 22 22 22 22 21 22
13 12 12 11 9 8 7 6 5 3 3 4 5 7 8 9 10 11 13 14 15 16 17 18 19 20 20 20 20 20 20 20 21 21 21 21 21 21 22 22 22 21 21
14 13 13 12 11 9 8 7 7 6 6 6 7 8 10 11 12 14 14 15 16 17 18 19 20 20 20 20 20 20 20 21 21 21 21 21 21 21 22 22 22 22 22
15 14 13 12 11 10 9 8 8 7 8 8 9 10 12 13 14 15 16 17 17 18 19 20 21 21 22 22 22 22 22 22 22 21 21 22 22 21 21 21 21 22 22
14 13 13 12 11 11 11 10 10 10 10 10 11 12 13 14 15 16 17 18 18 19 20 21 22 22 23 23 23 22 22 22 22 22 22 22 21 21 21 21 21 21 22
14 13 13 13 12 12 12 12 11 11 11 12 12 13 13 14 14 15 15 16 17 18 20 21 22 22 22 22 22 22 22 22 22 22 21 21 21 20 20 20 20 21 21
14 14 14 14 13 13 13 13 12 12 12 12 12 12 12 13 13 13 14 15 16 16 17 18 19 20 20 21 21 21 21 21 21 21 21 20 20 21 20 20 20 20 20
14 15 15 14 15 15 14 14 13 13 13 13 12 12 12 12 12 12 13 13 13 14 15 15 15 16 17 17 18 18 18 18 19 19 19 19 20 20 20 20 20 20 20
15 15 15 16 16 16 15 15 15 15 14 14 14 13 13 12 12 12 11 11 11 11 11 11 11 12 13 14 15 15 15 15 16 16 17 17 18 19 18 19 19 19 19
14 15 16 16 17 17 16 16 16 16 16 16 15 15 14 13 13 13 12 11 11 10 10 10 9 10 10 10 10 11 11 12 13 13 13 14 15 15 16 16 16 17 17
14 15 16 16 17 17 17 17 17 17 17 17 17 16 16 15 15 14 13 13 12 11 10 10 9 8 8 8 8 7 7 7 8 9 10 11 11 12 12 13 13 14 15
13 14 15 16 16 17 17 18 17 17 17 17 17 17 17 16 16 15 15 14 14 13 12 11 11 10 10 9 8 7 6 5 4 5 5 6 7 7 8 9 9 10 11
Wind_Direction
267 267 268 269 270 270 269 271 271 275 275 274 274 273 271 270 268 265 260 256 254 253 253 254 257 260 261 262 263 265 268 271 272 273 276 278 279 277 276 274 271 267 262
266 266 266 266 266 266 266 266 266 268 269 269 271 271 270 269 267 263 259 258 255 253 254 256 257 258 261 261 262 263 266 270 272 271 273 276 278 277 275 274 272 270 267
266 267 266 265 264 263 263 263 263 263 263 264 267 268 268 267 266 264 261 260 256 253 253 255 256 257 259 260 263 264 266 270 271 272 274 276 277 278 276 272 271 270 267
266 265 265 264 264 263 261 260 259 259 259 260 264 266 264 264 264 262 261 261 256 253 255 254 254 255 258 261 264 266 267 270 274 274 273 273 276 275 277 275 271 268 265
267 266 265 264 263 262 262 260 257 255 256 258 260 262 261 262 262 262 259 259 256 256 254 253 253 255 257 261 265 267 269 271 274 275 275 274 274 274 275 276 272 268 263
268 267 266 265 263 262 261 259 257 255 255 255 257 259 260 261 262 262 261 258 256 254 251 253 253 255 259 263 267 269 270 271 272 273 274 274 273 272 275 275 273 271 264
267 268 269 268 265 262 260 259 257 255 255 256 258 258 261 260 262 263 261 259 256 252 251 250 252 257 261 263 265 268 269 270 271 272 273 274 274 273 274 273 273 270 266
265 268 268 267 266 264 262 259 257 256 256 255 257 259 260 262 264 264 260 255 250 249 251 250 254 258 262 264 266 267 269 270 271 271 271 273 272 272 272 272 272 271 267
265 267 266 266 265 264 263 259 256 256 256 256 257 257 260 260 261 260 253 248 246 248 247 249 254 258 261 263 266 268 269 270 271 271 270 271 271 271 272 271 271 271 268
265 265 264 264 264 262 262 257 255 254 254 255 257 258 257 254 256 252 245 243 244 244 245 250 255 260 262 264 265 267 268 269 270 270 269 269 270 271 271 271 270 272 269
262 261 261 261 259 256 258 257 251 250 251 251 252 252 246 242 239 231 233 237 242 246 250 256 260 263 264 264 266 267 269 270 271 271 270 269 269 270 269 271 269 270 269
257 256 259 258 253 248 247 249 245 245 243 243 239 230 229 224 218 223 233 245 251 256 259 264 265 265 266 268 270 270 270 270 271 270 269 267 267 268 268 268 267 267 268
130 168 192 208 208 212 223 221 215 214 215 216 211 212 217 224 235 249 260 265 265 265 265 266 267 268 269 271 273 273 272 272 271 270 268 266 265 266 266 265 264 265 266
83 86 94 105 124 132 134 132 138 151 176 200 206 233 254 266 273 273 275 278 276 270 268 268 270 273 273 274 273 273 273 273 271 270 269 267 265 265 264 263 263 264 264
73 74 75 82 83 75 74 74 67 57 358 311 293 296 291 288 288 285 282 280 279 276 272 271 273 274 274 272 272 273 273 272 271 270 270 268 267 265 264 263 262 264 262
69 69 64 62 60 57 52 49 38 21 353 334 320 311 303 297 291 289 286 284 282 278 275 274 274 274 274 273 274 273 272 271 271 271 271 271 270 268 265 263 261 262 261
64 63 60 55 51 46 39 28 17 5 351 334 322 310 302 295 291 289 287 285 283 280 278 277 276 274 273 274 274 274 273 272 272 272 271 271 270 269 266 263 261 260 260
59 56 52 48 43 38 31 22 10 357 343 331 321 313 306 300 296 292 289 286 284 283 280 278 277 276 274 274 274 273 273 273 272 271 271 271 270 268 266 264 262 261 260
49 45 40 36 32 27 20 12 3 353 343 333 324 316 310 304 299 294 291 289 286 283 281 279 278 277 275 274 273 272 272 272 272 271 270 270 268 268 266 264 263 263 261
40 37 33 29 24 19 13 8 1 354 347 339 331 324 316 309 304 300 296 292 289 286 284 281 279 278 277 275 274 273 272 271 271 270 269 268 267 267 266 264 263 264 263
34 31 28 25 23 20 16 11 6 360 354 347 341 334 327 321 314 309 305 301 297 293 290 287 283 281 280 278 276 274 273 272 270 269 269 268 266 265 264 263 263 263 263
31 28 26 26 23 21 18 16 13 9 5 359 354 350 345 338 331 325 319 313 308 303 300 296 291 287 284 281 279 276 273 271 270 269 268 267 266 264 263 263 262 263 262
30 29 29 28 26 26 26 24 21 19 17 15 12 8 3 359 354 348 342 335 329 322 317 312 305 300 295 290 286 282 276 272 272 272 270 267 266 265 264 263 263 263 261
32 31 31 31 31 32 31 30 30 29 28 26 24 21 19 16 13 9 5 360 354 346 341 335 328 322 316 309 300 292 285 279 277 275 273 271 269 267 266 265 264 263 263
32 32 33 33 34 35 35 35 34 34 34 32 31 29 28 26 23 22 21 18 15 11 7 3 360 354 348 339 329 318 305 294 286 279 275 276 275 272 269 266 266 266 266
31 32 34 35 36 37 37 37 36 36 35 34 34 32 31 31 30 29 29 27 26 24 24 23 21 17 12 7 360 353 346 334 318 307 295 290 286 278 275 273 271 270 270
Height
5869 5869 5870 5870 5870 5870 5870 5870 5870 5869 5869 5868 5867 5866 5865 5865 5865 5865 5865 5865 5866 5866 5867 5867 5867 5867 5867 5867 5868 5868 5867 5867 5867 5866 5866 5865 5865 5865 5864 5864 5864 5863 5863
5861 5861 5862 5862 5862 5862 5862 5862 5862 5862 5862 5861 5860 5859 5858 5858 5857 5857 5857 5858 5860 5860 5861 5861 5861 5862 5862 5862 5862 5862 5862 5862 5862 5862 5861 5860 5860 5860 5860 5859 5859 5859 5859
5851 5852 5852 5853 5853 5853 5854 5854 5854 5854 5854 5854 5853 5852 5851 5850 5849 5849 5850 5851 5853 5854 5854 5855 5856 5856 5856 5856 5857 5857 5857 5856 5856 5856 5856 5855 5855 5854 5854 5854 5854 5854 5854
5842 5843 5843 5843 5844 5844 5845 5845 5846 5846 5846 5846 5846 5845 5843 5843 5841 5841 5842 5844 5845 5847 5848 5849 5849 5850 5850 5850 5851 5851 5851 5851 5850 5850 5850 5850 5849 5848 5848 5848 5848 5848 5848
5833 5833 5834 5834 5834 5835 5835 5836 5836 5836 5837 5838 5838 5838 5836 5835 5833 5833 5834 5835 5838 5840 5841 5842 5843 5843 5844 5844 5845 5845 5845 5845 5844 5844 5843 5843 5843 5842 5842 5842 5842 5841 5841
5823 5823 5824 5824 5824 5825 5825 5826 5826 5827 5828 5829 5829 5830 5829 5828 5826 5826 5827 5828 5829 5831 5833 5835 5836 5837 5838 5838 5838 5838 5838 5838 5838 5837 5837 5837 5836 5836 5835 5835 5835 5835 5835
5813 5814 5814 5814 5814 5814 5815 5816 5817 5818 5819 5820 5821 5821 5821 5821 5820 5821 5820 5821 5822 5824 5826 5828 5830 5831 5832 5832 5832 5832 5832 5832 5831 5831 5831 5831 5830 5830 5830 5829 5829 5829 5829
5805 5805 5805 5805 5805 5805 5806 5807 5808 5809 5810 5812 5813 5813 5813 5813 5814 5814 5815 5815 5816 5818 5820 5822 5824 5825 5826 5826 5826 5826 5826 5825 5825 5825 5824 5824 5824 5824 5824 5823 5823 5823 5823
5797 5797 5797 5796 5796 5797 5798 5798 5799 5801 5802 5803 5804 5805 5805 5806 5807 5808 5808 5810 5811 5812 5814 5816 5818 5819 5820 5820 5820 5820 5819 5819 5819 5818 5818 5818 5818 5818 5818 5817 5817 5817 5816
5790 5790 5790 5789 5789 5790 5791 5791 5792 5794 5795 5796 5797 5797 5798 5799 5801 5802 5803 5804 5806 5808 5810 5812 5812 5813 5814 5814 5813 5813 5813 5813 5812 5812 5812 5812 5812 5811 5811 5811 5811 5810 5810
5785 5785 5784 5784 5784 5785 5786 5786 5787 5788 5789 5790 5791 5792 5793 5794 5796 5797 5799 5801 5803 5804 5806 5806 5807 5807 5808 5808 5807 5807 5807 5806 5806 5806 5806 5806 5806 5805 5805 5805 5804 5804 5803
5782 5781 5781 5780 5781 5781 5782 5782 5783 5784 5785 5786 5788 5789 5790 5791 5792 5794 5795 5797 5799 5800 5801 5801 5802 5802 5802 5801 5801 5801 5800 5800 5800 5799 5799 5799 5799 5799 5799 5799 5798 5798 5798
5780 5779 5779 5778 5778 5779 5780 5781 5781 5783 5784 5785 5786 5787 5788 5789 5790 5791 5792 5793 5794 5795 5795 5796 5796 5796 5795 5795 5794 5794 5794 5794 5793 5793 5793 5793 5793 5793 5793 5792 5792 5792 5792
5780 5780 5779 5778 5779 5779 5780 5780 5781 5782 5783 5784 5784 5785 5786 5787 5787 5788 5789 5789 5789 5789 5790 5790 5790 5789 5789 5789 5788 5788 5788 5788 5787 5787 5787 5787 5787 5787 5786 5786 5786 5786 5786
5782 5781 5781 5781 5781 5781 5781 5781 5781 5782 5782 5783 5783 5784 5784 5785 5785 5785 5785 5785 5785 5784 5784 5784 5784 5783 5783 5783 5783 5783 5782 5782 5781 5781 5781 5781 5781 5780 5781 5781 5781 5781 5781
5786 5785 5784 5784 5783 5783 5783 5782 5782 5782 5782 5782 5782 5782 5782 5782 5782 5781 5781 5781 5780 5779 5779 5778 5778 5778 5778 5778 5777 5777 5776 5776 5775 5775 5775 5775 5775 5775 5775 5775 5775 5775 5775
5790 5789 5788 5787 5786 5785 5785 5784 5783 5783 5782 5782 5781 5781 5780 5780 5779 5778 5777 5776 5775 5774 5774 5773 5772 5772 5772 5772 5771 5771 5770 5770 5769 5769 5769 5769 5769 5769 5769 5769 5769 5769 5770
5795 5793 5792 5790 5789 5788 5787 5785 5784 5783 5782 5781 5780 5779 5777 5776 5775 5774 5773 5771 5770 5769 5768 5768 5767 5766 5766 5766 5765 5765 5764 5764 5763 5762 5763 5763 5763 5763 5763 5763 5763 5764 5764
5798 5796 5795 5793 5791 5790 5788 5786 5784 5783 5781 5780 5778 5776 5774 5773 5771 5770 5768 5767 5765 5764 5763 5762 5761 5760 5760 5759 5759 5758 5758 5757 5757 5757 5757 5757 5757 5757 5757 5757 5757 5758 5758
5800 5798 5797 5795 5793 5791 5788 5786 5784 5782 5780 5778 5776 5774 5772 5770 5768 5766 5764 5762 5761 5759 5757 5756 5755 5754 5753 5752 5752 5752 5751 5751 5750 5750 5751 5751 5751 5751 5751 5751 5752 5752 5753
5802 5800 5798 5796 5794 5791 5789 5786 5784 5781 5779 5776 5774 5771 5769 5767 5764 5762 5760 5758 5756 5754 5752 5750 5749 5748 5747 5746 5745 5745 5745 5745 5744 5744 5745 5745 5745 5745 5745 5746 5746 5747 5747
5804 5802 5800 5797 5795 5792 5789 5787 5784 5781 5778 5775 5772 5770 5767 5764 5762 5759 5757 5755 5752 5750 5748 5746 5744 5743 5741 5740 5739 5739 5739 5739 5738 5739 5739 5739 5739 5739 5740 5740 5741 5742 5742
5806 5804 5801 5799 5796 5793 5790 5787 5784 5781 5778 5775 5772 5769 5766 5763 5761 5758 5755 5753 5750 5748 5745 5743 5741 5739 5737 5736 5735 5734 5733 5733 5733 5733 5733 5733 5734 5734 5734 5735 5736 5736 5737
5808 5806 5803 5801 5798 5795 5792 5789 5786 5783 5779 5776 5773 5770 5767 5764 5761 5758 5755 5752 5749 5747 5744 5741 5739 5737 5735 5733 5731 5730 5729 5729 5729 5729 5729 5729 5729 5729 5729 5730 5731 5731 5732
5810 5808 5805 5803 5800 5797 5794 5791 5788 5785 5781 5778 5775 5772 5768 5765 5762 5759 5756 5753 5750 5747 5744 5741 5739 5736 5734 5732 5730 5728 5726 5726 5726 5726 5726 5726 5725 5725 5725 5726 5727 5727 5728
5812 5810 5808 5805 5802 5799 5796 5793 5790 5787 5784 5781 5777 5774 5771 5767 5764 5761 5758 5754 5751 5748 5745 5742 5740 5737 5734 5731 5729 5727 5726 5724 5724 5724 5724 5723 5723 5722 5723 5723 5723 5724 5724